| time (UTC) | temp C | wind direction | speed KPH | gust KPH | rain 1hr cm | rain 24hr cm | rain mn cm | humidity % | barometer mb |
| 20260503180202 | 15 | 245 | 3.2 | 9.7 | 0.00 | 0.03 | 0.03 | 81 | 1015.0 |
| 20260503175659 | 15 | 277 | 0.0 | 6.4 | 0.00 | 0.03 | 0.03 | 84 | 1015.2 |
| 20260503175156 | 14 | 310 | 3.2 | 12.9 | 0.00 | 0.03 | 0.03 | 82 | 1015.0 |
| 20260503174652 | 14 | 179 | 0.0 | 8.0 | 0.00 | 0.03 | 0.03 | 82 | 1015.1 |
| 20260503174149 | 14 | 212 | 1.6 | 6.4 | 0.00 | 0.03 | 0.03 | 81 | 1015.2 |
| 20260503173639 | 15 | 199 | 4.8 | 9.7 | 0.00 | 0.03 | 0.03 | 83 | 1015.1 |
| 20260503173135 | 15 | 317 | 3.2 | 4.8 | 0.00 | 0.03 | 0.03 | 83 | 1015.0 |
| 20260503172632 | 15 | 208 | 6.4 | 8.0 | 0.00 | 0.03 | 0.03 | 82 | 1015.1 |
| 20260503172130 | 15 | 287 | 0.0 | 6.4 | 0.00 | 0.03 | 0.03 | 81 | 1015.2 |
| 20260503171626 | 15 | 281 | 1.6 | 4.8 | 0.00 | 0.03 | 0.03 | 83 | 1015.1 |
| 20260503171123 | 15 | 320 | 0.0 | 6.4 | 0.00 | 0.03 | 0.03 | 85 | 1014.9 |
| 20260503170621 | 15 | 200 | 4.8 | 6.4 | 0.00 | 0.03 | 0.03 | 86 | 1015.0 |
| 20260503170117 | 15 | 214 | 0.0 | 4.8 | 0.00 | 0.03 | 0.03 | 89 | 1014.7 |
| 20260503151012 | 12 | 199 | 1.6 | 4.8 | 0.00 | 0.00 | 0.00 | 98 | 1014.4 |
| 20260503150509 | 12 | 22 | 0.0 | 3.2 | 0.05 | 0.00 | 0.00 | 98 | 1014.3 |
| 20260503131402 | 11 | 210 | 4.8 | 6.4 | 0.00 | 0.00 | 0.00 | 95 | 1013.4 |
| 20260503130859 | 11 | 221 | 3.2 | 6.4 | 0.00 | 0.00 | 0.00 | 95 | 1013.2 |
| 20260503130356 | 11 | 218 | 1.6 | 6.4 | 0.00 | 0.00 | 0.00 | 95 | 1013.1 |
| 20260503110750 | 11 | 205 | 0.0 | 4.8 | 0.00 | 0.00 | 0.00 | 95 | 1012.8 |
| 20260503110247 | 11 | 307 | 1.6 | 4.8 | 0.00 | 0.00 | 0.00 | 95 | 1012.9 |
| 20260503100213 | 12 | 98 | 0.0 | 9.7 | 0.00 | 0.00 | 0.00 | 93 | 1012.8 |
| 20260503090137 | 12 | 220 | 3.2 | 11.3 | 0.00 | 0.00 | 0.00 | 90 | 1013.0 |
| 20260503081613 | 12 | 216 | 6.4 | 8.0 | 0.00 | 0.00 | 0.00 | 89 | 1013.1 |
| 20260503081110 | 12 | 222 | 3.2 | 8.0 | 0.00 | 0.00 | 0.00 | 89 | 1013.3 |
| 20260503080606 | 12 | 232 | 3.2 | 8.0 | 0.00 | 0.00 | 0.00 | 89 | 1013.1 |
| 20260503080103 | 12 | 212 | 1.6 | 9.7 | 0.00 | 0.00 | 0.00 | 88 | 1013.2 |
| 20260503072540 | 12 | 208 | 3.2 | 12.9 | 0.00 | 0.00 | 0.00 | 87 | 1013.4 |
| 20260503072037 | 12 | 204 | 4.8 | 12.9 | 0.00 | 0.00 | 0.00 | 87 | 1013.1 |
| 20260503071534 | 12 | 214 | 6.4 | 9.7 | 0.00 | 0.00 | 0.00 | 87 | 1013.4 |
| 20260503071031 | 12 | 196 | 3.2 | 11.3 | 0.00 | 0.00 | 0.00 | 87 | 1013.3 |
| 20260503070527 | 12 | 227 | 3.2 | 8.0 | 0.00 | 0.00 | 0.00 | 87 | 1013.1 |
| 20260503054945 | 12 | 187 | 3.2 | 8.0 | 0.00 | 0.00 | 0.00 | 87 | 1013.9 |
| 20260503054441 | 12 | 226 | 3.2 | 8.0 | 0.00 | 0.00 | 0.00 | 87 | 1013.6 |
| 20260503053939 | 12 | 187 | 1.6 | 4.8 | 0.00 | 0.00 | 0.00 | 87 | 1013.7 |
| 20260503053437 | 12 | 242 | 1.6 | 11.3 | 0.00 | 0.00 | 0.00 | 87 | 1013.6 |
| 20260503052933 | 12 | 224 | 3.2 | 8.0 | 0.00 | 0.00 | 0.00 | 87 | 1013.5 |
| 20260503052431 | 12 | 213 | 3.2 | 8.0 | 0.00 | 0.00 | 0.00 | 86 | 1013.9 |
| 20260503051927 | 12 | 271 | 1.6 | 8.0 | 0.00 | 0.00 | 0.00 | 86 | 1013.7 |
| 20260503051423 | 12 | 220 | 4.8 | 8.0 | 0.00 | 0.00 | 0.00 | 86 | 1014.0 |
| 20260503050921 | 12 | 251 | 0.0 | 6.4 | 0.00 | 0.00 | 0.00 | 86 | 1013.9 |
| 20260503050416 | 12 | 264 | 3.2 | 9.7 | 0.00 | 0.00 | 0.00 | 86 | 1013.9 |
| 20260503045914 | 12 | 215 | 1.6 | 11.3 | 0.00 | 0.00 | 0.00 | 86 | 1013.8 |
| 20260503045411 | 12 | 217 | 3.2 | 4.8 | 0.00 | 0.00 | 0.00 | 85 | 1014.5 |
| 20260503044908 | 12 | 248 | 3.2 | 6.4 | 0.00 | 0.00 | 0.00 | 85 | 1013.9 |
| 20260503044405 | 12 | 199 | 1.6 | 4.8 | 0.00 | 0.00 | 0.00 | 86 | 1014.1 |
| 20260503043902 | 12 | 234 | 0.0 | 8.0 | 0.00 | 0.00 | 0.00 | 86 | 1014.0 |
| 20260503043359 | 12 | 236 | 4.8 | 9.7 | 0.00 | 0.00 | 0.00 | 86 | 1014.1 |
| 20260503042855 | 12 | 263 | 1.6 | 12.9 | 0.00 | 0.00 | 0.00 | 86 | 1013.9 |
| 20260503042352 | 12 | 199 | 3.2 | 11.3 | 0.00 | 0.00 | 0.00 | 86 | 1013.9 |
| 20260503041848 | 12 | 22 | 0.0 | 6.4 | 0.00 | 0.00 | 0.00 | 87 | 1014.1 |
| 20260503041345 | 12 | 198 | 3.2 | 8.0 | 0.00 | 0.00 | 0.00 | 87 | 1013.8 |
| 20260503040843 | 12 | 262 | 8.0 | 8.0 | 0.00 | 0.00 | 0.00 | 87 | 1013.8 |
| 20260503040340 | 12 | 236 | 1.6 | 6.4 | 0.00 | 0.00 | 0.00 | 87 | 1013.8 |
| 20260503035836 | 12 | 124 | 0.0 | 12.9 | 0.00 | 0.00 | 0.00 | 87 | 1013.6 |
| 20260503035334 | 12 | 233 | 1.6 | 12.9 | 0.00 | 0.00 | 0.00 | 87 | 1013.4 |
| 20260503034831 | 12 | 235 | 3.2 | 11.3 | 0.00 | 0.00 | 0.00 | 86 | 1013.4 |
| 20260503034329 | 12 | 256 | 3.2 | 6.4 | 0.00 | 0.00 | 0.00 | 86 | 1013.3 |
| 20260503033826 | 12 | 253 | 3.2 | 8.0 | 0.00 | 0.00 | 0.00 | 86 | 1013.4 |
| 20260503033323 | 12 | 135 | 0.0 | 8.0 | 0.00 | 0.00 | 0.00 | 86 | 1013.3 |
| 20260503032821 | 12 | 239 | 3.2 | 11.3 | 0.00 | 0.00 | 0.00 | 86 | 1013.2 |
| 20260503032320 | 12 | 249 | 1.6 | 9.7 | 0.00 | 0.00 | 0.00 | 86 | 1013.1 |
| 20260503031816 | 12 | 201 | 0.0 | 6.4 | 0.00 | 0.00 | 0.00 | 86 | 1013.1 |
| 20260503031314 | 12 | 239 | 4.8 | 12.9 | 0.00 | 0.00 | 0.00 | 86 | 1013.0 |
| 20260503030810 | 12 | 265 | 8.0 | 11.3 | 0.00 | 0.00 | 0.00 | 86 | 1013.0 |
| 20260503030307 | 13 | 251 | 3.2 | 8.0 | 0.00 | 0.00 | 0.00 | 86 | 1013.2 |
| 20260503025803 | 13 | 266 | 1.6 | 8.0 | 0.00 | 0.00 | 0.00 | 86 | 1012.8 |
| 20260503025301 | 13 | 235 | 6.4 | 11.3 | 0.00 | 0.00 | 0.00 | 85 | 1013.1 |
| 20260503024758 | 13 | 209 | 3.2 | 9.7 | 0.00 | 0.00 | 0.00 | 84 | 1013.1 |
| 20260503024255 | 13 | 279 | 4.8 | 9.7 | 0.00 | 0.00 | 0.00 | 84 | 1012.9 |
| 20260503023752 | 13 | 246 | 6.4 | 8.0 | 0.00 | 0.00 | 0.00 | 85 | 1012.9 |
| 20260503023249 | 13 | 230 | 3.2 | 9.7 | 0.00 | 0.00 | 0.00 | 86 | 1012.9 |
| 20260503022745 | 13 | 265 | 4.8 | 9.7 | 0.00 | 0.00 | 0.00 | 86 | 1012.9 |
| 20260503022240 | 13 | 314 | 3.2 | 8.0 | 0.00 | 0.00 | 0.00 | 86 | 1013.0 |
| 20260503021737 | 13 | 317 | 3.2 | 20.9 | 0.00 | 0.00 | 0.00 | 86 | 1013.1 |
| 20260503021233 | 13 | 147 | 3.2 | 8.0 | 0.00 | 0.00 | 0.00 | 86 | 1013.0 |
| 20260503020731 | 13 | 279 | 3.2 | 17.7 | 0.00 | 0.00 | 0.00 | 85 | 1013.1 |
| 20260503020228 | 13 | 300 | 4.8 | 9.7 | 0.00 | 0.00 | 0.00 | 84 | 1013.0 |
| 20260503015725 | 13 | 252 | 3.2 | 11.3 | 0.00 | 0.00 | 0.00 | 85 | 1013.0 |
| 20260503015222 | 13 | 288 | 4.8 | 8.0 | 0.00 | 0.00 | 0.00 | 85 | 1013.3 |
| 20260503014717 | 13 | 251 | 3.2 | 11.3 | 0.00 | 0.00 | 0.00 | 84 | 1013.1 |
| 20260503014216 | 13 | 199 | 4.8 | 12.9 | 0.00 | 0.00 | 0.00 | 85 | 1013.2 |
| 20260503013712 | 13 | 259 | 8.0 | 14.5 | 0.00 | 0.00 | 0.00 | 84 | 1013.3 |
| 20260503013210 | 13 | 277 | 3.2 | 8.0 | 0.00 | 0.00 | 0.00 | 85 | 1013.2 |
| 20260503012707 | 13 | 282 | 1.6 | 11.3 | 0.00 | 0.00 | 0.00 | 85 | 1013.2 |
| 20260503012204 | 13 | 248 | 8.0 | 12.9 | 0.00 | 0.00 | 0.00 | 83 | 1013.1 |
| 20260503011700 | 14 | 324 | 0.0 | 11.3 | 0.00 | 0.00 | 0.00 | 83 | 1013.1 |
| 20260503011158 | 14 | 0 | 3.2 | 14.5 | 0.00 | 0.00 | 0.00 | 83 | 1013.1 |
| 20260503010654 | 14 | 355 | 3.2 | 12.9 | 0.00 | 0.00 | 0.00 | 82 | 1013.1 |
| 20260503010151 | 14 | 44 | 3.2 | 9.7 | 0.00 | 0.00 | 0.00 | 82 | 1013.2 |
| 20260503005648 | 14 | 319 | 3.2 | 11.3 | 0.00 | 0.00 | 0.00 | 81 | 1013.1 |
| 20260503005145 | 14 | 267 | 3.2 | 14.5 | 0.00 | 0.00 | 0.00 | 82 | 1012.8 |
| 20260503004641 | 15 | 325 | 3.2 | 14.5 | 0.00 | 0.00 | 0.00 | 82 | 1013.2 |
| 20260503004140 | 15 | 290 | 6.4 | 14.5 | 0.00 | 0.00 | 0.00 | 81 | 1012.9 |
| 20260503003637 | 14 | 246 | 3.2 | 16.1 | 0.00 | 0.00 | 0.00 | 82 | 1012.9 |
| 20260503003134 | 15 | 85 | 0.0 | 9.7 | 0.00 | 0.00 | 0.00 | 82 | 1013.2 |
| 20260503002631 | 15 | 225 | 0.0 | 17.7 | 0.00 | 0.00 | 0.00 | 83 | 1013.0 |
| 20260503002128 | 15 | 318 | 3.2 | 9.7 | 0.00 | 0.00 | 0.00 | 82 | 1013.1 |
| 20260503001623 | 15 | 268 | 0.0 | 11.3 | 0.00 | 0.00 | 0.00 | 82 | 1013.3 |
| 20260503001121 | 15 | 284 | 4.8 | 14.5 | 0.00 | 0.00 | 0.00 | 82 | 1013.3 |
| 20260503000618 | 15 | 287 | 3.2 | 14.5 | 0.00 | 0.00 | 0.00 | 82 | 1013.3 |
| 20260503000115 | 15 | 232 | 4.8 | 9.7 | 0.00 | 0.00 | 0.00 | 81 | 1013.5 |
| 20260502235612 | 15 | 182 | 3.2 | 12.9 | 0.00 | 0.00 | 0.00 | 81 | 1013.3 |
| 20260502235110 | 15 | 325 | 4.8 | 16.1 | 0.00 | 0.00 | 0.00 | 81 | 1013.4 |
| 20260502234605 | 15 | 65 | 0.0 | 11.3 | 0.00 | 0.00 | 0.00 | 80 | 1013.3 |
| 20260502234103 | 15 | 331 | 4.8 | 11.3 | 0.00 | 0.00 | 0.00 | 79 | 1013.4 |
| 20260502233558 | 15 | 264 | 4.8 | 12.9 | 0.00 | 0.00 | 0.00 | 80 | 1013.3 |
| 20260502233055 | 15 | 297 | 1.6 | 11.3 | 0.00 | 0.00 | 0.00 | 79 | 1013.1 |
| 20260502232551 | 15 | 287 | 4.8 | 11.3 | 0.00 | 0.00 | 0.00 | 78 | 1013.4 |
| 20260502232049 | 16 | 249 | 4.8 | 14.5 | 0.00 | 0.00 | 0.00 | 77 | 1013.4 |
| 20260502231545 | 16 | 281 | 6.4 | 14.5 | 0.00 | 0.00 | 0.00 | 76 | 1013.6 |
| 20260502231043 | 16 | 13 | 4.8 | 11.3 | 0.00 | 0.00 | 0.00 | 76 | 1013.4 |
| 20260502230541 | 16 | 258 | 6.4 | 12.9 | 0.00 | 0.00 | 0.00 | 77 | 1013.4 |
| 20260502230040 | 16 | 3 | 1.6 | 12.9 | 0.00 | 0.00 | 0.00 | 77 | 1013.5 |
| 20260502225535 | 16 | 160 | 3.2 | 17.7 | 0.00 | 0.00 | 0.00 | 77 | 1013.7 |
| 20260502225032 | 16 | 5 | 0.0 | 9.7 | 0.00 | 0.00 | 0.00 | 79 | 1013.8 |
| 20260502224528 | 16 | 300 | 6.4 | 17.7 | 0.00 | 0.00 | 0.00 | 78 | 1013.9 |
| 20260502224025 | 16 | 337 | 8.0 | 14.5 | 0.00 | 0.00 | 0.00 | 79 | 1014.0 |
| 20260502223523 | 16 | 61 | 3.2 | 14.5 | 0.00 | 0.00 | 0.00 | 79 | 1014.2 |
| 20260502223021 | 16 | 247 | 6.4 | 20.9 | 0.00 | 0.00 | 0.00 | 78 | 1014.3 |
| 20260502222518 | 17 | 308 | 6.4 | 11.3 | 0.00 | 0.00 | 0.00 | 76 | 1014.2 |
| 20260502222014 | 17 | 209 | 3.2 | 14.5 | 0.00 | 0.00 | 0.00 | 77 | 1014.1 |
| 20260502221510 | 17 | 250 | 4.8 | 11.3 | 0.00 | 0.00 | 0.00 | 75 | 1014.2 |
| 20260502221008 | 17 | 278 | 6.4 | 17.7 | 0.00 | 0.00 | 0.00 | 76 | 1014.4 |
| 20260502220503 | 17 | 303 | 4.8 | 14.5 | 0.00 | 0.00 | 0.00 | 77 | 1014.4 |
| 20260502220000 | 17 | 298 | 3.2 | 11.3 | 0.00 | 0.00 | 0.00 | 75 | 1014.6 |
| 20260502215457 | 17 | 334 | 3.2 | 24.1 | 0.00 | 0.00 | 0.00 | 75 | 1014.7 |
| 20260502214954 | 18 | 135 | 0.0 | 11.3 | 0.00 | 0.00 | 0.00 | 74 | 1014.7 |
| 20260502214451 | 18 | 287 | 4.8 | 11.3 | 0.00 | 0.00 | 0.00 | 74 | 1014.6 |
| 20260502213948 | 17 | 103 | 0.0 | 16.1 | 0.00 | 0.00 | 0.00 | 76 | 1014.8 |
| 20260502213445 | 18 | 319 | 4.8 | 14.5 | 0.00 | 0.00 | 0.00 | 73 | 1014.7 |
| 20260502212943 | 17 | 315 | 1.6 | 14.5 | 0.00 | 0.00 | 0.00 | 76 | 1014.8 |
| 20260502212442 | 17 | 179 | 1.6 | 19.3 | 0.00 | 0.00 | 0.00 | 74 | 1014.8 |
| 20260502211939 | 17 | 133 | 0.0 | 17.7 | 0.00 | 0.00 | 0.00 | 73 | 1014.9 |
| 20260502211434 | 17 | 314 | 3.2 | 14.5 | 0.00 | 0.00 | 0.00 | 73 | 1015.0 |
| 20260502210932 | 17 | 327 | 6.4 | 12.9 | 0.00 | 0.00 | 0.00 | 73 | 1014.7 |
| 20260502210428 | 17 | 271 | 3.2 | 11.3 | 0.00 | 0.00 | 0.00 | 74 | 1015.0 |
| 20260502205926 | 17 | 298 | 4.8 | 14.5 | 0.00 | 0.00 | 0.00 | 73 | 1015.0 |
| 20260502205422 | 17 | 331 | 4.8 | 14.5 | 0.00 | 0.00 | 0.00 | 73 | 1015.0 |
| 20260502204919 | 17 | 175 | 1.6 | 12.9 | 0.00 | 0.00 | 0.00 | 75 | 1015.2 |
| 20260502204416 | 17 | 214 | 1.6 | 8.0 | 0.00 | 0.00 | 0.00 | 75 | 1015.3 |
| 20260502203914 | 16 | 280 | 8.0 | 19.3 | 0.00 | 0.00 | 0.00 | 76 | 1015.1 |
| 20260502203411 | 17 | 240 | 6.4 | 14.5 | 0.00 | 0.00 | 0.00 | 75 | 1015.3 |
| 20260502202907 | 16 | 259 | 4.8 | 16.1 | 0.00 | 0.00 | 0.00 | 76 | 1015.3 |
| 20260502202404 | 17 | 186 | 3.2 | 11.3 | 0.00 | 0.00 | 0.00 | 76 | 1015.3 |
| 20260502201902 | 17 | 221 | 0.0 | 11.3 | 0.00 | 0.00 | 0.00 | 75 | 1015.4 |
| 20260502201357 | 17 | 27 | 3.2 | 11.3 | 0.00 | 0.00 | 0.00 | 72 | 1015.5 |
| 20260502200854 | 17 | 288 | 4.8 | 16.1 | 0.00 | 0.00 | 0.00 | 74 | 1015.5 |
| 20260502200350 | 17 | 340 | 8.0 | 12.9 | 0.00 | 0.00 | 0.00 | 73 | 1015.7 |
| 20260502195849 | 17 | 305 | 6.4 | 12.9 | 0.00 | 0.00 | 0.00 | 74 | 1015.8 |
| 20260502195345 | 17 | 295 | 6.4 | 14.5 | 0.00 | 0.00 | 0.00 | 75 | 1016.0 |
| 20260502194841 | 17 | 220 | 4.8 | 16.1 | 0.00 | 0.00 | 0.00 | 76 | 1016.0 |
| 20260502194338 | 17 | 257 | 3.2 | 9.7 | 0.00 | 0.00 | 0.00 | 75 | 1016.0 |
| 20260502193834 | 16 | 64 | 0.0 | 14.5 | 0.00 | 0.00 | 0.00 | 77 | 1015.8 |
| 20260502193332 | 17 | 258 | 4.8 | 12.9 | 0.00 | 0.00 | 0.00 | 75 | 1016.2 |
| 20260502192827 | 16 | 195 | 1.6 | 8.0 | 0.00 | 0.00 | 0.00 | 76 | 1016.1 |
| 20260502192324 | 16 | 278 | 4.8 | 8.0 | 0.00 | 0.00 | 0.00 | 76 | 1016.4 |
| 20260502191821 | 16 | 183 | 0.0 | 12.9 | 0.00 | 0.00 | 0.00 | 77 | 1016.2 |
| 20260502191320 | 16 | 268 | 4.8 | 9.7 | 0.00 | 0.00 | 0.00 | 77 | 1016.4 |
| 20260502190816 | 16 | 69 | 1.6 | 9.7 | 0.00 | 0.00 | 0.00 | 77 | 1016.1 |
| 20260502190314 | 15 | 165 | 3.2 | 12.9 | 0.00 | 0.00 | 0.00 | 79 | 1016.1 |
| 20260502185809 | 16 | 340 | 3.2 | 9.7 | 0.00 | 0.00 | 0.00 | 77 | 1016.4 |
| 20260502185305 | 15 | 156 | 0.0 | 8.0 | 0.00 | 0.00 | 0.00 | 78 | 1016.1 |
| 20260502184802 | 15 | 197 | 1.6 | 12.9 | 0.00 | 0.00 | 0.00 | 77 | 1016.3 |
| 20260502184257 | 16 | 306 | 0.0 | 11.3 | 0.00 | 0.00 | 0.00 | 78 | 1016.3 |
| 20260502183754 | 16 | 164 | 1.6 | 9.7 | 0.00 | 0.00 | 0.00 | 78 | 1016.4 |
| 20260502183250 | 16 | 308 | 8.0 | 14.5 | 0.00 | 0.00 | 0.00 | 78 | 1016.2 |
| 20260502182746 | 15 | 288 | 4.8 | 11.3 | 0.00 | 0.00 | 0.00 | 79 | 1016.0 |
| 20260502182241 | 15 | 319 | 3.2 | 8.0 | 0.00 | 0.00 | 0.00 | 80 | 1016.3 |
| 20260502181737 | 15 | 208 | 3.2 | 12.9 | 0.00 | 0.00 | 0.00 | 80 | 1016.3 |
| 20260502181232 | 15 | 344 | 1.6 | 8.0 | 0.00 | 0.00 | 0.00 | 80 | 1016.4 |
| 20260502180728 | 15 | 328 | 4.8 | 9.7 | 0.00 | 0.00 | 0.00 | 80 | 1016.4 |